Other Surface Observations
Issued by NWS

Current Version | Previous Version | Text Only | Print | Product List | Glossary On
Versions: 1 2 3 4 5 6 7 8 9 10 11 12 13 14 15 16 17 18 19 20 21 22 23 24 25 26 27 28 29 30 31 32 33 34 35 36 37 38 39 40 41 42 43 44 45 46 47 48 49 50
816
SXUS52 KTAE 201018
OSOTAE
OSOTAE
North Florida/South Alabama/Southwest Georgia Weather Roundup
National Weather Service Tallahassee Florida
500 AM EST MON FEB 20 2017

Note: "fair" indicates few or no clouds below 12,000 feet with no
significant weather and/or obstructions to visibility.

!FLZ017-115-028-034-025-201100
...North Florida...

CITY           SKY/WX    TMP DP  RH WIND       PRES   REMARKS
TALLAHASSEE    CLEAR     50  50 100 CALM      30.09S
APALACHICOLA   FOG       58  58 100 NE5       30.06S VSB 1/2
PERRY          FOG       53  52  97 CALM      30.10S VSB 1/4
CROSS CITY     FOG       52  52 100 CALM      30.09S VSB 1/4
JACKSONVILLE   MOCLDY    51  51 100 CALM      30.09S FOG
$$

!FLZ112-006-005-002-011-201100
...Florida Panhandle...

CITY           SKY/WX    TMP DP  RH WIND       PRES   REMARKS
MARIANNA       CLEAR     52  51  97 CALM      30.08S
BONIFAY        FAIR      52  51  97 CALM      30.10R
PANAMA CITY NW FAIR      57  55  93 CALM      30.07R
TYNDALL AFB    CLOUDY    59  59  98 CALM      30.08R
TYND DRONE APT FAIR      57  58 100 CALM      30.08R
DE FUNIAK SPR  FAIR      58  51  76 NE6       30.10R
EGLIN AFB      CLEAR     55  53  94 N3        30.09R
DESTIN         CLOUDY    62  61  96 CALM      30.09R
HURLBURT       PTCLDY    53  50  90 N6        30.08R
CRESTVIEW      PTCLDY    49  48  97 N3        30.11R
PENSACOLA      CLOUDY    57  54  89 N5        30.09R
$$

!ALZ063-066-201100
...South Alabama...

CITY           SKY/WX    TMP DP  RH WIND       PRES   REMARKS
DOTHAN         CLEAR     54  51  90 NE3       30.13R
OZARK CAIRNS   CLOUDY    51  49  92 CALM      30.09R
FT RUCKER HELI PTCLDY    48  47  99 CALM      30.09R
RUCKER HELI 3  NOT AVBL
RUCKER HELI 2  FAIR      50  49  96 CALM      30.09R
FLORALA APT    PTCLDY    50  46  86 CALM      30.12R
ANDALUSIA      CLOUDY    53  48  83 CALM      30.10R
TROY           CLOUDY    48  46  93 N3        30.10R
EUFALA         FAIR      46  44  93 CALM      30.10R FOG
MOBILE         FOG       58  57  97 CALM      30.10S VSB<1/4
$$

!GAZ120>161-201100
...Southwest and South Central Georgia...

CITY           SKY/WX    TMP DP  RH WIND       PRES   REMARKS
THOMASVILLE    FAIR      52  52 100 CALM      30.11F
BAINBRIDGE     CLEAR     52  52 100 E3        30.10R
MOODY AFB      CLEAR     51  49  93 CALM      30.09S
VALDOSTA       CLEAR     48  47  96 CALM      30.10S FOG
MOULTRIE       CLEAR     52  50  93 CALM      30.11S
BLAKELY        CLEAR     52  50  93 CALM      30.10S
ALBANY         CLEAR     49  47  93 CALM      30.12S
TIFTON         FAIR      51  51 100 NE3       30.10F
FITZGERALD     FAIR      49  49 100 CALM      30.13F FOG
CORDELE        FAIR      49  48  97 CALM      30.12S
AMERICUS       FAIR      46  46 100 CALM      30.13R
HOMERVILLE     FAIR      48  48 100 CALM      30.12R
$$

!GMZ750-755-770-775-201100
...Coastal and Buoy Obs...

STATION/POSITION TIME  TEMP    WIND        PRES    VSBY  WAVE
                       AIR SEA DIR/SP/G                  HT/PER
                 (UTC) (F)     (DEG/KT/KT) (MB)    (MI)  (FT/S)
KEATON BEACH     1000   58      50/  3/  5 1018.4F
CEDAR KEY        1000   61      20/  4/  6 1018.9S
C TOWER          1000   65      70/  6/  7 1019.0R
APALACHICOLA BUO 0950   68 69   10/  2/  4 1018.2S         1/ 6
PANAMA CITY BUOY 0950   70 71              1018.8R         2/ 6
MOBILE BUOY      NOT AVBL
ORANGE BCH AL BU 0950   67 67   80/  2/  2 1018.9R         1/ 6
$$




USA.gov is the U.S. government's official web portal to all federal, state and local government web resources and services.